Home   Weather   Sion   Past weeks

Flag for Switzerland Past Weather in Sion, Valais, Switzerland — Yesterday and Last 2 Weeks

Now
80 °F

Sunny.


Feels Like: 80 °F
Forecast: 61 / 81 °F
Wind: 16 mph from West

Location: Sion

Current Time: May 26, 2017 at 3:18:13 pm

Latest Report: May 26, 2017 at 2:00 pm


Visibility: 19 mi

Pressure: 29.93 "Hg (28.22 "Hg at 514m altitude)

Humidity: 37%

Dew Point: 51 °F

Location of SionLocation

Past Weather in Sion — Graph

°F

Sion Temperature Yesterday

Maximum temperature yesterday: 83 °F (at 4:00 pm)
Minimum temperature yesterday: 55 °F (at 4:00 am)
Average temperature yesterday: 69 °F

High & Low Weather Summary for the Past Weeks

 TemperatureHumidityPressure
High84 °F (May 17, 4:00 pm)94% (May 13, 12:00 am)30.42 "Hg (May 13, 12:00 am)
Low44 °F (May 21, 4:00 am)21% (May 15, 4:00 pm)29.44 "Hg (May 11, 4:00 pm)
Average63 °F57%30.05 "Hg
* Reported May 11 1:00 pm — May 26 1:00 pm, Sion. Weather by CustomWeather, © 2017

Note: Actual official high and low records may vary slightly from our data, if they occured in-between our weather recording intervals... More about our weather records

Advertising

Sion Weather History for the Previous 24 Hours

Scroll right to see more
 ConditionsComfort  
Time TempWeatherWind HumidityBarometerVisibility
1:00 pm
Fri, May 26
76 °FMild.13 mph40%29.96 "HgN/A
12:00 pm76 °FMild.6 mph36%29.98 "HgN/A
11:00 am71 °FSunny.3 mph43%30.01 "Hg19 mi
10:00 am69 °FMild.2 mph49%30.03 "HgN/A
9:00 am65 °FMild.3 mph52%30.06 "HgN/A
8:00 am61 °FSunny.1 mph62%30.08 "Hg19 mi
7:00 am57 °FCool.1 mph77%30.09 "HgN/A
6:00 am55 °FCool.1 mph77%30.08 "HgN/A
5:00 am58 °FCool.3 mph68%30.05 "HgN/A
4:00 am58 °FCool.1 mph73%30.05 "HgN/A
3:00 am57 °FCool.1 mph79%30.05 "HgN/A
2:00 am60 °FClear.1 mph69%30.03 "Hg16 mi
1:00 am63 °FMild.1 mph59%30.02 "HgN/A
12:00 am64 °FMild.3 mph61%30.01 "HgN/A
11:00 pm
Thu, May 25
66 °FClear.1 mph60%29.98 "Hg19 mi
10:00 pm72 °FMild.8 mph46%29.94 "HgN/A
9:00 pm74 °FMild.9 mph43%29.91 "HgN/A
8:00 pm76 °FPassing clouds.12 mph42%29.88 "Hg22 mi
7:00 pm81 °FPleasantly warm.22 mph35%29.85 "HgN/A
6:00 pm82 °FPleasantly warm.21 mph34%29.86 "HgN/A
5:00 pm83 °FScattered clouds.20 mph32%29.87 "Hg19 mi
4:00 pm83 °FPleasantly warm.18 mph32%29.88 "HgN/A
3:00 pm81 °FPleasantly warm.13 mph33%29.91 "HgN/A
Weather by CustomWeather, © 2017

See weather overviewHow to use our weather pages